M I D A S
Marine Information and Data Acquisition System
Tripno 382 of the Zeeleeuw from 2002-08-01 07:53:26 to 2002-08-01 14:23:53
Back to CruiseResearch ActivitiesStationsMapUnderway DataData graphs

EquipmentUnitsComment
TimeDGPSUTC
LatitudeDGPSDM.mWGS84
LongitudeDGPSDM.mWGS84
TemperatureSBE03/SBE38deg celciusITS90
ConductivitySBE21S/mITS90
SalinitySBE21 Practical Salinity Units
ChlorophylAChelsea fluorimeterg/lCalibrated in Aceton
Missing or incorrect values are displayed as -999
Sea surface data collected by the RV Zeeleeuw from 2002-08-01 07:53:26 to 2002-08-01 14:23:53
                                                                                    Next 1000 lines
Time Latitude Longitude Temperature Conductivity Salinity ChlorophylA
2002-08-01 07:53:32 51°13.663 2°55.955 -999 -999 -999  
2002-08-01 07:53:38 51°13.663 2°55.955 -999 -999 -999  
2002-08-01 07:53:43 51°13.663 2°55.954 -999 -999 -999  
2002-08-01 07:53:48 51°13.663 2°55.953 -999 -999 -999  
2002-08-01 07:53:52 51°13.663 2°55.952 -999 -999 -999  
2002-08-01 07:53:58 51°13.663 2°55.95 -999 -999 -999  
2002-08-01 07:54:03 51°13.663 2°55.948 -999 -999 -999  
2002-08-01 07:54:08 51°13.664 2°55.946 -999 -999 -999  
2002-08-01 07:54:14 51°13.665 2°55.942 -999 -999 -999  
2002-08-01 07:54:19 51°13.666 2°55.938 -999 -999 -999  
2002-08-01 07:54:25 51°13.667 2°55.933 -999 -999 -999  
2002-08-01 07:54:29 51°13.668 2°55.929 -999 -999 -999  
2002-08-01 07:54:34 51°13.668 2°55.925 -999 -999 -999  
2002-08-01 07:54:39 51°13.669 2°55.92 -999 -999 -999  
2002-08-01 07:54:44 51°13.67 2°55.915 -999 -999 -999  
2002-08-01 07:54:49 51°13.671 2°55.909 -999 -999 -999  
2002-08-01 07:54:55 51°13.671 2°55.903 -999 -999 -999  
2002-08-01 07:54:59 51°13.672 2°55.898 -999 -999 -999  
2002-08-01 07:55:04 51°13.672 2°55.893 -999 -999 -999  
2002-08-01 07:55:09 51°13.673 2°55.887 -999 -999 -999  
2002-08-01 07:55:14 51°13.673 2°55.881 -999 -999 -999  
2002-08-01 07:55:19 51°13.674 2°55.875 -999 -999 -999  
2002-08-01 07:55:24 51°13.674 2°55.869 -999 -999 -999  
2002-08-01 07:55:29 51°13.675 2°55.863 -999 -999 -999  
2002-08-01 07:55:35 51°13.675 2°55.856 -999 -999 -999  
2002-08-01 07:55:39 51°13.676 2°55.851 -999 -999 -999  
2002-08-01 07:55:44 51°13.676 2°55.844 -999 -999 -999  
2002-08-01 07:55:49 51°13.677 2°55.838 -999 -999 -999  
2002-08-01 07:55:55 51°13.677 2°55.83 -999 -999 -999  
2002-08-01 07:55:59 51°13.678 2°55.825 -999 -999 -999  
2002-08-01 07:56:04 51°13.678 2°55.818 -999 -999 -999  
2002-08-01 07:56:09 51°13.678 2°55.812 -999 -999 -999  
2002-08-01 07:56:15 51°13.679 2°55.804 -999 -999 -999  
2002-08-01 07:56:19 51°13.679 2°55.799 -999 -999 -999  
2002-08-01 07:56:24 51°13.68 2°55.793 -999 -999 -999  
2002-08-01 07:56:29 51°13.68 2°55.787 -999 -999 -999  
2002-08-01 07:56:35 51°13.68 2°55.779 -999 -999 -999  
2002-08-01 07:56:39 51°13.68 2°55.775 -999 -999 -999  
2002-08-01 07:56:44 51°13.68 2°55.769 -999 -999 -999  
2002-08-01 07:56:48 51°13.68 2°55.765 -999 -999 -999  
2002-08-01 07:56:53 51°13.68 2°55.76 -999 -999 -999  
2002-08-01 07:56:59 51°13.68 2°55.754 -999 -999 -999  
2002-08-01 07:57:03 51°13.68 2°55.751 -999 -999 -999  
2002-08-01 07:57:08 51°13.68 2°55.748 -999 -999 -999  
2002-08-01 07:57:13 51°13.68 2°55.745 -999 -999 -999  
2002-08-01 07:57:18 51°13.68 2°55.743 -999 -999 -999  
2002-08-01 07:57:23 51°13.68 2°55.741 -999 -999 -999  
2002-08-01 07:57:28 51°13.679 2°55.739 -999 -999 -999  
2002-08-01 07:57:33 51°13.679 2°55.738 -999 -999 -999  
2002-08-01 07:57:39 51°13.679 2°55.737 -999 -999 -999  
2002-08-01 07:57:44 51°13.68 2°55.736 -999 -999 -999  
2002-08-01 07:57:48 51°13.681 2°55.735 -999 -999 -999  
2002-08-01 07:57:53 51°13.682 2°55.734 -999 -999 -999  
2002-08-01 07:57:58 51°13.683 2°55.735 -999 -999 -999  
2002-08-01 07:58:03 51°13.683 2°55.735 -999 -999 -999  
2002-08-01 07:58:08 51°13.684 2°55.736 -999 -999 -999  
2002-08-01 07:58:13 51°13.685 2°55.736 -999 -999 -999  
2002-08-01 07:58:18 51°13.686 2°55.737 -999 -999 -999  
2002-08-01 07:58:24 51°13.687 2°55.738 -999 -999 -999  
2002-08-01 07:58:28 51°13.689 2°55.738 -999 -999 -999  
2002-08-01 07:58:32 51°13.69 2°55.739 -999 -999 -999  
2002-08-01 07:58:38 51°13.693 2°55.739 -999 -999 -999  
2002-08-01 07:58:44 51°13.696 2°55.739 -999 -999 -999  
2002-08-01 07:58:48 51°13.698 2°55.738 -999 -999 -999  
2002-08-01 07:58:53 51°13.702 2°55.737 -999 -999 -999  
2002-08-01 07:58:58 51°13.705 2°55.736 -999 -999 -999  
2002-08-01 07:59:04 51°13.71 2°55.733 -999 -999 -999  
2002-08-01 07:59:08 51°13.714 2°55.73 -999 -999 -999  
2002-08-01 07:59:12 51°13.718 2°55.727 -999 -999 -999  
2002-08-01 07:59:18 51°13.725 2°55.722 -999 -999 -999  
2002-08-01 07:59:24 51°13.731 2°55.716 -999 -999 -999  
2002-08-01 07:59:28 51°13.737 2°55.712 -999 -999 -999  
2002-08-01 07:59:33 51°13.743 2°55.707 -999 -999 -999  
2002-08-01 07:59:38 51°13.75 2°55.701 -999 -999 -999  
2002-08-01 07:59:43 51°13.757 2°55.695 -999 -999 -999  
2002-08-01 07:59:48 51°13.764 2°55.689 -999 -999 -999  
2002-08-01 07:59:54 51°13.773 2°55.681 -999 -999 -999  
2002-08-01 07:59:58 51°13.779 2°55.676 -999 -999 -999  
2002-08-01 08:00:03 51°13.787 2°55.669 -999 -999 -999  
2002-08-01 08:00:08 51°13.796 2°55.663 -999 -999 -999  
2002-08-01 08:00:14 51°13.806 2°55.654 -999 -999 -999  
2002-08-01 08:00:19 51°13.814 2°55.646 -999 -999 -999  
2002-08-01 08:00:24 51°13.823 2°55.639 -999 -999 -999  
2002-08-01 08:00:28 51°13.83 2°55.633 -999 -999 -999  
2002-08-01 08:00:34 51°13.842 2°55.625 -999 -999 -999  
2002-08-01 08:00:39 51°13.851 2°55.617 -999 -999 -999  
2002-08-01 08:00:44 51°13.861 2°55.61 -999 -999 -999  
2002-08-01 08:00:48 51°13.868 2°55.605 -999 -999 -999  
2002-08-01 08:00:53 51°13.878 2°55.597 -999 -999 -999  
2002-08-01 08:00:58 51°13.888 2°55.59 -999 -999 -999  
2002-08-01 08:01:03 51°13.898 2°55.583 -999 -999 -999  
2002-08-01 08:01:08 51°13.908 2°55.575 -999 -999 -999  
2002-08-01 08:01:12 51°13.915 2°55.569 -999 -999 -999  
2002-08-01 08:01:19 51°13.929 2°55.559 -999 -999 -999  
2002-08-01 08:01:24 51°13.939 2°55.551 -999 -999 -999  
2002-08-01 08:01:28 51°13.947 2°55.546 -999 -999 -999  
2002-08-01 08:01:33 51°13.957 2°55.538 -999 -999 -999  
2002-08-01 08:01:39 51°13.97 2°55.529 -999 -999 -999  
2002-08-01 08:01:44 51°13.98 2°55.521 -999 -999 -999  
2002-08-01 08:01:48 51°13.989 2°55.515 -999 -999 -999  
2002-08-01 08:01:54 51°14.001 2°55.506 -999 -999 -999  
2002-08-01 08:01:59 51°14.011 2°55.498 -999 -999 -999  
2002-08-01 08:02:03 51°14.019 2°55.492 -999 -999 -999  
2002-08-01 08:02:08 51°14.029 2°55.484 -999 -999 -999  
2002-08-01 08:02:13 51°14.039 2°55.476 -999 -999 -999  
2002-08-01 08:02:18 51°14.05 2°55.469 -999 -999 -999  
2002-08-01 08:02:24 51°14.062 2°55.46 -999 -999 -999  
2002-08-01 08:02:28 51°14.07 2°55.454 -999 -999 -999  
2002-08-01 08:02:33 51°14.08 2°55.446 -999 -999 -999  
2002-08-01 08:02:38 51°14.09 2°55.438 -999 -999 -999  
2002-08-01 08:02:43 51°14.101 2°55.431 -999 -999 -999  
2002-08-01 08:02:48 51°14.111 2°55.423 -999 -999 -999  
2002-08-01 08:02:54 51°14.123 2°55.414 -999 -999 -999  
2002-08-01 08:02:58 51°14.131 2°55.407 -999 -999 -999  
2002-08-01 08:03:04 51°14.144 2°55.398 -999 -999 -999  
2002-08-01 08:03:08 51°14.153 2°55.391 -999 -999 -999  
2002-08-01 08:03:12 51°14.16 2°55.383 -999 -999 -999  
2002-08-01 08:03:18 51°14.172 2°55.372 -999 -999 -999  
2002-08-01 08:03:24 51°14.184 2°55.361 -999 -999 -999  
2002-08-01 08:03:28 51°14.192 2°55.352 -999 -999 -999  
2002-08-01 08:03:34 51°14.203 2°55.339 -999 -999 -999  
2002-08-01 08:03:38 51°14.21 2°55.33 -999 -999 -999  
2002-08-01 08:03:43 51°14.219 2°55.319 -999 -999 -999  
2002-08-01 08:03:48 51°14.228 2°55.307 -999 -999 -999  
2002-08-01 08:03:54 51°14.239 2°55.293 -999 -999 -999  
2002-08-01 08:03:57 51°14.244 2°55.286 -999 -999 -999  
2002-08-01 08:04:04 51°14.256 2°55.268 -999 -999 -999  
2002-08-01 08:04:08 51°14.262 2°55.257 -999 -999 -999  
2002-08-01 08:04:14 51°14.272 2°55.241 -999 -999 -999  
2002-08-01 08:04:18 51°14.278 2°55.23 -999 -999 -999  
2002-08-01 08:04:24 51°14.287 2°55.213 -999 -999 -999  
2002-08-01 08:04:28 51°14.293 2°55.201 -999 -999 -999  
2002-08-01 08:04:34 51°14.303 2°55.183 -999 -999 -999  
2002-08-01 08:04:39 51°14.31 2°55.167 -999 -999 -999  
2002-08-01 08:04:44 51°14.318 2°55.151 -999 -999 -999  
2002-08-01 08:04:48 51°14.325 2°55.137 -999 -999 -999  
2002-08-01 08:04:53 51°14.333 2°55.121 -999 -999 -999  
2002-08-01 08:04:58 51°14.341 2°55.103 -999 -999 -999  
2002-08-01 08:05:04 51°14.351 2°55.082 -999 -999 -999  
2002-08-01 08:05:08 51°14.358 2°55.068 -999 -999 -999  
2002-08-01 08:05:14 51°14.368 2°55.047 -999 -999 -999  
2002-08-01 08:05:19 51°14.377 2°55.031 -999 -999 -999  
2002-08-01 08:05:24 51°14.388 2°55.015 -999 -999 -999  
2002-08-01 08:05:28 51°14.395 2°55.002 -999 -999 -999  
2002-08-01 08:05:34 51°14.408 2°54.984 -999 -999 -999  
2002-08-01 08:05:38 51°14.416 2°54.972 -999 -999 -999  
2002-08-01 08:05:44 51°14.429 2°54.954 -999 -999 -999  
2002-08-01 08:05:48 51°14.438 2°54.942 -999 -999 -999  
2002-08-01 08:05:54 51°14.45 2°54.924 -999 -999 -999  
2002-08-01 08:05:59 51°14.461 2°54.909 -999 -999 -999  
2002-08-01 08:06:04 51°14.472 2°54.894 -999 -999 -999  
2002-08-01 08:06:08 51°14.481 2°54.882 -999 -999 -999  
2002-08-01 08:06:14 51°14.494 2°54.864 -999 -999 -999  
2002-08-01 08:06:18 51°14.503 2°54.852 -999 -999 -999  
2002-08-01 08:06:23 51°14.514 2°54.839 -999 -999 -999  
2002-08-01 08:06:28 51°14.526 2°54.825 -999 -999 -999  
2002-08-01 08:06:34 51°14.539 2°54.809 -999 -999 -999  
2002-08-01 08:06:38 51°14.548 2°54.798 -999 -999 -999  
2002-08-01 08:06:43 51°14.56 2°54.784 -999 -999 -999  
2002-08-01 08:06:48 51°14.571 2°54.771 -999 -999 -999  
2002-08-01 08:06:53 51°14.582 2°54.757 -999 -999 -999  
2002-08-01 08:06:58 51°14.594 2°54.743 -999 -999 -999  
2002-08-01 08:07:03 51°14.606 2°54.731 -999 -999 -999  
2002-08-01 08:07:08 51°14.618 2°54.718 -999 -999 -999  
2002-08-01 08:07:13 51°14.63 2°54.706 -999 -999 -999  
2002-08-01 08:07:18 51°14.642 2°54.693 -999 -999 -999  
2002-08-01 08:07:24 51°14.656 2°54.679 -999 -999 -999  
2002-08-01 08:07:28 51°14.665 2°54.669 -999 -999 -999  
2002-08-01 08:07:33 51°14.676 2°54.658 -999 -999 -999  
2002-08-01 08:07:39 51°14.689 2°54.645 -999 -999 -999  
2002-08-01 08:07:43 51°14.697 2°54.636 -999 -999 -999  
2002-08-01 08:07:48 51°14.708 2°54.626 -999 -999 -999  
2002-08-01 08:07:54 51°14.72 2°54.613 -999 -999 -999  
2002-08-01 08:07:58 51°14.728 2°54.605 -999 -999 -999  
2002-08-01 08:08:04 51°14.741 2°54.592 -999 -999 -999  
2002-08-01 08:08:08 51°14.749 2°54.584 -999 -999 -999  
2002-08-01 08:08:14 51°14.761 2°54.573 -999 -999 -999  
2002-08-01 08:08:19 51°14.771 2°54.564 -999 -999 -999  
2002-08-01 08:08:24 51°14.781 2°54.556 -999 -999 -999  
2002-08-01 08:08:28 51°14.79 2°54.551 -999 -999 -999  
2002-08-01 08:08:33 51°14.801 2°54.545 -999 -999 -999  
2002-08-01 08:08:38 51°14.811 2°54.539 -999 -999 -999  
2002-08-01 08:08:43 51°14.822 2°54.532 -999 -999 -999  
2002-08-01 08:08:48 51°14.833 2°54.527 -999 -999 -999  
2002-08-01 08:08:54 51°14.846 2°54.52 -999 -999 -999  
2002-08-01 08:08:58 51°14.856 2°54.515 -999 -999 -999  
2002-08-01 08:09:04 51°14.871 2°54.509 -999 -999 -999  
2002-08-01 08:09:08 51°14.882 2°54.506 -999 -999 -999  
2002-08-01 08:09:13 51°14.896 2°54.502 -999 -999 -999  
2002-08-01 08:09:18 51°14.91 2°54.5 -999 -999 -999  
2002-08-01 08:09:24 51°14.928 2°54.5 -999 -999 -999  
2002-08-01 08:09:28 51°14.941 2°54.501 -999 -999 -999  
2002-08-01 08:09:33 51°14.956 2°54.503 -999 -999 -999  
2002-08-01 08:09:38 51°14.973 2°54.506 -999 -999 -999  
2002-08-01 08:09:43 51°14.989 2°54.509 -999 -999 -999  
2002-08-01 08:09:48 51°15.006 2°54.514 -999 -999 -999  
2002-08-01 08:09:54 51°15.026 2°54.521 -999 -999 -999  
2002-08-01 08:09:58 51°15.04 2°54.527 -999 -999 -999  
2002-08-01 08:10:04 51°15.06 2°54.535 -999 -999 -999  
2002-08-01 08:10:08 51°15.074 2°54.542 -999 -999 -999  
2002-08-01 08:10:13 51°15.092 2°54.551 -999 -999 -999  
2002-08-01 08:10:18 51°15.109 2°54.561 -999 -999 -999  
2002-08-01 08:10:24 51°15.13 2°54.574 -999 -999 -999  
2002-08-01 08:10:28 51°15.143 2°54.585 -999 -999 -999  
2002-08-01 08:10:34 51°15.163 2°54.603 -999 -999 -999  
2002-08-01 08:10:38 51°15.176 2°54.615 -999 -999 -999  
2002-08-01 08:10:43 51°15.191 2°54.633 -999 -999 -999  
2002-08-01 08:10:48 51°15.206 2°54.652 -999 -999 -999  
2002-08-01 08:10:53 51°15.22 2°54.672 -999 -999 -999  
2002-08-01 08:10:58 51°15.234 2°54.691 -999 -999 -999  
2002-08-01 08:11:04 51°15.252 2°54.716 -999 -999 -999  
2002-08-01 08:11:08 51°15.263 2°54.732 -999 -999 -999  
2002-08-01 08:11:14 51°15.28 2°54.756 -999 -999 -999  
2002-08-01 08:11:18 51°15.292 2°54.771 -999 -999 -999  
2002-08-01 08:11:24 51°15.31 2°54.795 -999 -999 -999  
2002-08-01 08:11:28 51°15.322 2°54.81 -999 -999 -999  
2002-08-01 08:11:33 51°15.337 2°54.83 -999 -999 -999  
2002-08-01 08:11:39 51°15.355 2°54.853 -999 -999 -999  
2002-08-01 08:11:43 51°15.366 2°54.869 -999 -999 -999  
2002-08-01 08:11:48 51°15.382 2°54.889 -999 -999 -999  
2002-08-01 08:11:54 51°15.399 2°54.914 -999 -999 -999  
2002-08-01 08:11:58 51°15.411 2°54.93 -999 -999 -999  
2002-08-01 08:12:04 51°15.428 2°54.955 -999 -999 -999  
2002-08-01 08:12:08 51°15.44 2°54.972 -999 -999 -999  
2002-08-01 08:12:14 51°15.456 2°54.998 -999 -999 -999  
2002-08-01 08:12:19 51°15.469 2°55.021 -999 -999 -999  
2002-08-01 08:12:24 51°15.483 2°55.043 -999 -999 -999  
2002-08-01 08:12:28 51°15.494 2°55.061 -999 -999 -999  
2002-08-01 08:12:33 51°15.507 2°55.084 -999 -999 -999  
2002-08-01 08:12:38 51°15.521 2°55.106 -999 -999 -999  
2002-08-01 08:12:44 51°15.537 2°55.133 -999 -999 -999  
2002-08-01 08:12:49 51°15.55 2°55.157 -999 -999 -999  
2002-08-01 08:12:53 51°15.56 2°55.175 -999 -999 -999  
2002-08-01 08:13:00 51°15.578 2°55.208 -999 -999 -999  
2002-08-01 08:13:05 51°15.591 2°55.232 -999 -999 -999  
2002-08-01 08:13:09 51°15.6 2°55.251 -999 -999 -999  
2002-08-01 08:13:13 51°15.61 2°55.269 -999 -999 -999  
2002-08-01 08:13:19 51°15.625 2°55.298 -999 -999 -999  
2002-08-01 08:13:24 51°15.638 2°55.321 -999 -999 -999  
2002-08-01 08:13:29 51°15.651 2°55.344 -999 -999 -999  
2002-08-01 08:13:35 51°15.666 2°55.372 -999 -999 -999  
2002-08-01 08:13:39 51°15.677 2°55.391 -999 -999 -999  
2002-08-01 08:13:44 51°15.69 2°55.414 -999 -999 -999  
2002-08-01 08:13:49 51°15.702 2°55.437 -999 -999 -999  
2002-08-01 08:13:55 51°15.718 2°55.465 -999 -999 -999  
2002-08-01 08:13:59 51°15.728 2°55.484 -999 -999 -999  
2002-08-01 08:14:05 51°15.742 2°55.512 -999 -999 -999  
2002-08-01 08:14:09 51°15.752 2°55.532 -999 -999 -999  
2002-08-01 08:14:15 51°15.766 2°55.561 -999 -999 -999  
2002-08-01 08:14:19 51°15.776 2°55.58 -999 -999 -999  
2002-08-01 08:14:24 51°15.788 2°55.605 -999 -999 -999  
2002-08-01 08:14:29 51°15.8 2°55.63 -999 -999 -999  
2002-08-01 08:14:35 51°15.814 2°55.659 -999 -999 -999  
2002-08-01 08:14:40 51°15.826 2°55.684 -999 -999 -999  
2002-08-01 08:14:44 51°15.836 2°55.703 -999 -999 -999  
2002-08-01 08:14:49 51°15.849 2°55.727 -999 -999 -999  
2002-08-01 08:14:54 51°15.861 2°55.752 -999 -999 -999  
2002-08-01 08:14:59 51°15.873 2°55.775 -999 -999 -999  
2002-08-01 08:15:05 51°15.888 2°55.804 -999 -999 -999  
2002-08-01 08:15:09 51°15.898 2°55.824 -999 -999 -999  
2002-08-01 08:15:15 51°15.913 2°55.852 -999 -999 -999  
2002-08-01 08:15:19 51°15.922 2°55.872 -999 -999 -999  
2002-08-01 08:15:24 51°15.935 2°55.896 -999 -999 -999  
2002-08-01 08:15:29 51°15.947 2°55.92 -999 -999 -999  
2002-08-01 08:15:35 51°15.962 2°55.949 -999 -999 -999  
2002-08-01 08:15:39 51°15.971 2°55.969 -999 -999 -999  
2002-08-01 08:15:45 51°15.985 2°55.998 -999 -999 -999  
2002-08-01 08:15:49 51°15.995 2°56.018 -999 -999 -999  
2002-08-01 08:15:54 51°16.007 2°56.043 -999 -999 -999  
2002-08-01 08:15:59 51°16.018 2°56.068 -999 -999 -999  
2002-08-01 08:16:04 51°16.029 2°56.094 -999 -999 -999  
2002-08-01 08:16:09 51°16.04 2°56.119 -999 -999 -999  
2002-08-01 08:16:15 51°16.053 2°56.15 -999 -999 -999  
2002-08-01 08:16:20 51°16.065 2°56.176 -999 -999 -999  
2002-08-01 08:16:25 51°16.075 2°56.201 -999 -999 -999  
2002-08-01 08:16:29 51°16.085 2°56.222 -999 -999 -999  
2002-08-01 08:16:35 51°16.098 2°56.253 -999 -999 -999  
2002-08-01 08:16:39 51°16.108 2°56.273 -999 -999 -999  
2002-08-01 08:16:45 51°16.12 2°56.304 -999 -999 -999  
2002-08-01 08:16:49 51°16.129 2°56.324 -999 -999 -999  
2002-08-01 08:16:55 51°16.141 2°56.354 -999 -999 -999  
2002-08-01 08:17:00 51°16.153 2°56.38 -999 -999 -999  
2002-08-01 08:17:05 51°16.164 2°56.405 -999 -999 -999  
2002-08-01 08:17:09 51°16.173 2°56.426 -999 -999 -999  
2002-08-01 08:17:15 51°16.185 2°56.457 -999 -999 -999  
2002-08-01 08:17:20 51°16.196 2°56.483 -999 -999 -999  
2002-08-01 08:17:24 51°16.203 2°56.504 -999 -999 -999  
2002-08-01 08:17:29 51°16.213 2°56.531 -999 -999 -999  
2002-08-01 08:17:35 51°16.224 2°56.562 -999 -999 -999  
2002-08-01 08:17:39 51°16.232 2°56.584 -999 -999 -999  
2002-08-01 08:17:45 51°16.243 2°56.615 -999 -999 -999  
2002-08-01 08:17:49 51°16.251 2°56.636 -999 -999 -999  
2002-08-01 08:17:55 51°16.263 2°56.668 -999 -999 -999  
2002-08-01 08:18:00 51°16.274 2°56.694 -999 -999 -999  
2002-08-01 08:18:04 51°16.282 2°56.714 -999 -999 -999  
2002-08-01 08:18:09 51°16.293 2°56.741 -999 -999 -999  
2002-08-01 08:18:14 51°16.304 2°56.767 -999 -999 -999  
2002-08-01 08:18:19 51°16.314 2°56.793 -999 -999 -999  
2002-08-01 08:18:25 51°16.326 2°56.824 -999 -999 -999  
2002-08-01 08:18:29 51°16.334 2°56.845 -999 -999 -999  
2002-08-01 08:18:35 51°16.346 2°56.876 -999 -999 -999  
2002-08-01 08:18:39 51°16.354 2°56.897 -999 -999 -999  
2002-08-01 08:18:45 51°16.367 2°56.928 -999 -999 -999  
2002-08-01 08:18:49 51°16.375 2°56.949 -999 -999 -999  
2002-08-01 08:18:53 51°16.383 2°56.97 -999 -999 -999  
2002-08-01 08:18:59 51°16.395 2°57.001 -999 -999 -999  
2002-08-01 08:19:05 51°16.407 2°57.032 -999 -999 -999  
2002-08-01 08:19:09 51°16.415 2°57.053 -999 -999 -999  
2002-08-01 08:19:15 51°16.427 2°57.084 -999 -999 -999  
2002-08-01 08:19:20 51°16.437 2°57.11 -999 -999 -999  
2002-08-01 08:19:24 51°16.446 2°57.131 -999 -999 -999  
2002-08-01 08:19:29 51°16.456 2°57.157 -999 -999 -999  
2002-08-01 08:19:33 51°16.464 2°57.177 -999 -999 -999  
2002-08-01 08:19:39 51°16.476 2°57.209 -999 -999 -999  
2002-08-01 08:19:45 51°16.488 2°57.24 -999 -999 -999  
2002-08-01 08:19:49 51°16.496 2°57.261 -999 -999 -999  
2002-08-01 08:19:55 51°16.508 2°57.292 -999 -999 -999  
2002-08-01 08:19:59 51°16.517 2°57.312 -999 -999 -999  
2002-08-01 08:20:04 51°16.527 2°57.338 -999 -999 -999  
2002-08-01 08:20:09 51°16.538 2°57.364 -999 -999 -999  
2002-08-01 08:20:15 51°16.55 2°57.395 -999 -999 -999  
2002-08-01 08:20:20 51°16.561 2°57.421 -999 -999 -999  
2002-08-01 08:20:24 51°16.569 2°57.442 -999 -999 -999  
2002-08-01 08:20:29 51°16.579 2°57.468 -999 -999 -999  
2002-08-01 08:20:34 51°16.59 2°57.494 -999 -999 -999  
2002-08-01 08:20:39 51°16.6 2°57.52 -999 -999 -999  
2002-08-01 08:20:45 51°16.613 2°57.551 -999 -999 -999  
2002-08-01 08:20:49 51°16.622 2°57.571 -999 -999 -999  
2002-08-01 08:20:55 51°16.634 2°57.603 -999 -999 -999  
2002-08-01 08:20:59 51°16.643 2°57.623 -999 -999 -999  
2002-08-01 08:21:05 51°16.655 2°57.654 -999 -999 -999  
2002-08-01 08:21:09 51°16.664 2°57.675 -999 -999 -999  
2002-08-01 08:21:13 51°16.672 2°57.696 -999 -999 -999  
2002-08-01 08:21:19 51°16.685 2°57.727 -999 -999 -999  
2002-08-01 08:21:25 51°16.698 2°57.759 -999 -999 -999  
2002-08-01 08:21:29 51°16.706 2°57.779 -999 -999 -999  
2002-08-01 08:21:34 51°16.716 2°57.805 -999 -999 -999  
2002-08-01 08:21:39 51°16.727 2°57.831 -999 -999 -999  
2002-08-01 08:21:44 51°16.737 2°57.858 -999 -999 -999  
2002-08-01 08:21:49 51°16.747 2°57.884 -999 -999 -999  
2002-08-01 08:21:55 51°16.759 2°57.915 -999 -999 -999  
2002-08-01 08:22:00 51°16.769 2°57.942 -999 -999 -999  
2002-08-01 08:22:04 51°16.778 2°57.963 -999 -999 -999  
2002-08-01 08:22:09 51°16.788 2°57.989 -999 -999 -999  
2002-08-01 08:22:15 51°16.801 2°58.02 -999 -999 -999  
2002-08-01 08:22:19 51°16.809 2°58.041 -999 -999 -999  
2002-08-01 08:22:25 51°16.822 2°58.072 -999 -999 -999  
2002-08-01 08:22:29 51°16.83 2°58.093 -999 -999 -999  
2002-08-01 08:22:35 51°16.843 2°58.123 -999 -999 -999  
2002-08-01 08:22:39 51°16.851 2°58.144 -999 -999 -999  
2002-08-01 08:22:45 51°16.864 2°58.175 -999 -999 -999  
2002-08-01 08:22:49 51°16.872 2°58.196 -999 -999 -999  
2002-08-01 08:22:53 51°16.881 2°58.217 -999 -999 -999  
2002-08-01 08:22:59 51°16.893 2°58.248 -999 -999 -999  
2002-08-01 08:23:05 51°16.905 2°58.28 -999 -999 -999  
2002-08-01 08:23:09 51°16.913 2°58.301 -999 -999 -999  
2002-08-01 08:23:15 51°16.925 2°58.332 -999 -999 -999  
2002-08-01 08:23:20 51°16.935 2°58.359 -999 -999 -999  
2002-08-01 08:23:25 51°16.946 2°58.385 -999 -999 -999  
2002-08-01 08:23:29 51°16.954 2°58.405 -999 -999 -999  
2002-08-01 08:23:33 51°16.962 2°58.426 -999 -999 -999  
2002-08-01 08:23:39 51°16.975 2°58.457 -999 -999 -999  
2002-08-01 08:23:45 51°16.988 2°58.488 -999 -999 -999  
2002-08-01 08:23:49 51°16.997 2°58.509 -999 -999 -999  
2002-08-01 08:23:55 51°17.01 2°58.54 -999 -999 -999  
2002-08-01 08:23:59 51°17.019 2°58.562 -999 -999 -999  
2002-08-01 08:24:04 51°17.029 2°58.587 -999 -999 -999  
2002-08-01 08:24:09 51°17.039 2°58.613 -999 -999 -999  
2002-08-01 08:24:15 51°17.051 2°58.644 -999 -999 -999  
2002-08-01 08:24:20 51°17.062 2°58.671 -999 -999 -999  
2002-08-01 08:24:24 51°17.07 2°58.692 -999 -999 -999  
2002-08-01 08:24:29 51°17.08 2°58.718 -999 -999 -999  
2002-08-01 08:24:35 51°17.093 2°58.749 -999 -999 -999  
2002-08-01 08:24:39 51°17.101 2°58.77 -999 -999 -999  
2002-08-01 08:24:45 51°17.113 2°58.802 -999 -999 -999  
2002-08-01 08:24:49 51°17.121 2°58.823 -999 -999 -999  
2002-08-01 08:24:55 51°17.134 2°58.854 -999 -999 -999  
2002-08-01 08:24:59 51°17.142 2°58.875 -999 -999 -999  
2002-08-01 08:25:05 51°17.154 2°58.906 -999 -999 -999  
2002-08-01 08:25:09 51°17.162 2°58.927 -999 -999 -999  
2002-08-01 08:25:13 51°17.17 2°58.948 -999 -999 -999  
2002-08-01 08:25:19 51°17.183 2°58.98 -999 -999 -999  
2002-08-01 08:25:25 51°17.195 2°59.012 -999 -999 -999  
2002-08-01 08:25:29 51°17.203 2°59.032 -999 -999 -999  
2002-08-01 08:25:34 51°17.214 2°59.058 -999 -999 -999  
2002-08-01 08:25:39 51°17.224 2°59.084 -999 -999 -999  
2002-08-01 08:25:45 51°17.237 2°59.115 -999 -999 -999  
2002-08-01 08:25:49 51°17.245 2°59.136 -999 -999 -999  
2002-08-01 08:25:55 51°17.258 2°59.167 -999 -999 -999  
2002-08-01 08:26:00 51°17.269 2°59.192 -999 -999 -999  
2002-08-01 08:26:04 51°17.277 2°59.213 -999 -999 -999  
2002-08-01 08:26:09 51°17.288 2°59.239 -999 -999 -999  
2002-08-01 08:26:15 51°17.3 2°59.27 -999 -999 -999  
2002-08-01 08:26:19 51°17.309 2°59.291 -999 -999 -999  
2002-08-01 08:26:25 51°17.321 2°59.322 -999 -999 -999  
2002-08-01 08:26:29 51°17.33 2°59.343 -999 -999 -999  
2002-08-01 08:26:34 51°17.34 2°59.369 -999 -999 -999  
2002-08-01 08:26:39 51°17.351 2°59.395 -999 -999 -999  
2002-08-01 08:26:45 51°17.363 2°59.426 -999 -999 -999  
2002-08-01 08:26:49 51°17.371 2°59.447 -999 -999 -999  
2002-08-01 08:26:55 51°17.383 2°59.479 -999 -999 -999  
2002-08-01 08:26:59 51°17.391 2°59.5 -999 -999 -999  
2002-08-01 08:27:05 51°17.404 2°59.532 -999 -999 -999  
2002-08-01 08:27:09 51°17.412 2°59.552 -999 -999 -999  
2002-08-01 08:27:15 51°17.425 2°59.583 -999 -999 -999  
2002-08-01 08:27:20 51°17.435 2°59.609 -999 -999 -999  
2002-08-01 08:27:25 51°17.445 2°59.635 -999 -999 -999  
2002-08-01 08:27:29 51°17.454 2°59.656 -999 -999 -999  
2002-08-01 08:27:33 51°17.462 2°59.677 -999 -999 -999  
2002-08-01 08:27:39 51°17.475 2°59.708 -999 -999 -999  
2002-08-01 08:27:45 51°17.487 2°59.739 -999 -999 -999  
2002-08-01 08:27:49 51°17.495 2°59.76 -999 -999 -999  
2002-08-01 08:27:55 51°17.508 2°59.792 -999 -999 -999  
2002-08-01 08:28:00 51°17.519 2°59.817 -999 -999 -999  
2002-08-01 08:28:05 51°17.529 2°59.843 -999 -999 -999  
2002-08-01 08:28:09 51°17.538 2°59.864 -999 -999 -999  
2002-08-01 08:28:15 51°17.55 2°59.895 -999 -999 -999  
2002-08-01 08:28:20 51°17.561 2°59.921 -999 -999 -999  
2002-08-01 08:28:24 51°17.569 2°59.942 -999 -999 -999  
2002-08-01 08:28:29 51°17.578 2°59.968 -999 -999 -999  
2002-08-01 08:28:35 51°17.59 2°60 -999 -999 -999  
2002-08-01 08:28:39 51°17.598 3°0.021 -999 -999 -999  
2002-08-01 08:28:45 51°17.61 3°0.053 -999 -999 -999  
2002-08-01 08:28:49 51°17.618 3°0.074 -999 -999 -999  
2002-08-01 08:28:55 51°17.63 3°0.105 -999 -999 -999  
2002-08-01 08:28:59 51°17.638 3°0.126 -999 -999 -999  
2002-08-01 08:29:05 51°17.65 3°0.158 -999 -999 -999  
2002-08-01 08:29:09 51°17.659 3°0.179 -999 -999 -999  
2002-08-01 08:29:15 51°17.671 3°0.21 -999 -999 -999  
2002-08-01 08:29:19 51°17.679 3°0.23 -999 -999 -999  
2002-08-01 08:29:25 51°17.692 3°0.261 -999 -999 -999  
2002-08-01 08:29:29 51°17.7 3°0.282 -999 -999 -999  
2002-08-01 08:29:34 51°17.71 3°0.309 -999 -999 -999  
2002-08-01 08:29:39 51°17.72 3°0.335 -999 -999 -999  
2002-08-01 08:29:45 51°17.732 3°0.366 -999 -999 -999  
2002-08-01 08:29:49 51°17.741 3°0.387 -999 -999 -999  
2002-08-01 08:29:55 51°17.753 3°0.418 -999 -999 -999  
2002-08-01 08:30:00 51°17.763 3°0.444 -999 -999 -999  
2002-08-01 08:30:04 51°17.771 3°0.465 -999 -999 -999  
2002-08-01 08:30:09 51°17.782 3°0.49 -999 -999 -999  
2002-08-01 08:30:15 51°17.794 3°0.521 -999 -999 -999  
2002-08-01 08:30:19 51°17.803 3°0.542 -999 -999 -999  
2002-08-01 08:30:25 51°17.815 3°0.572 -999 -999 -999  
2002-08-01 08:30:29 51°17.824 3°0.593 -999 -999 -999  
2002-08-01 08:30:34 51°17.834 3°0.618 -999 -999 -999  
2002-08-01 08:30:39 51°17.845 3°0.643 -999 -999 -999  
2002-08-01 08:30:45 51°17.858 3°0.674 -999 -999 -999  
2002-08-01 08:30:49 51°17.866 3°0.694 -999 -999 -999  
2002-08-01 08:30:55 51°17.879 3°0.725 -999 -999 -999  
2002-08-01 08:30:59 51°17.887 3°0.746 -999 -999 -999  
2002-08-01 08:31:05 51°17.899 3°0.777 -999 -999 -999  
2002-08-01 08:31:09 51°17.907 3°0.798 -999 -999 -999  
2002-08-01 08:31:15 51°17.919 3°0.828 -999 -999 -999  
2002-08-01 08:31:20 51°17.93 3°0.853 -999 -999 -999  
2002-08-01 08:31:25 51°17.94 3°0.878 -999 -999 -999  
2002-08-01 08:31:29 51°17.949 3°0.898 -999 -999 -999  
2002-08-01 08:31:35 51°17.962 3°0.927 -999 -999 -999  
2002-08-01 08:31:39 51°17.97 3°0.947 -999 -999 -999  
2002-08-01 08:31:45 51°17.983 3°0.977 -999 -999 -999  
2002-08-01 08:31:49 51°17.992 3°0.997 -999 -999 -999  
2002-08-01 08:31:55 51°18.005 3°1.028 -999 -999 -999  
2002-08-01 08:32:00 51°18.016 3°1.053 -999 -999 -999  
2002-08-01 08:32:05 51°18.025 3°1.078 -999 -999 -999  
2002-08-01 08:32:09 51°18.034 3°1.099 -999 -999 -999  
2002-08-01 08:32:15 51°18.045 3°1.13 -999 -999 -999  
2002-08-01 08:32:20 51°18.055 3°1.156 -999 -999 -999  
2002-08-01 08:32:24 51°18.063 3°1.177 -999 -999 -999  
2002-08-01 08:32:29 51°18.073 3°1.203 -999 -999 -999  
2002-08-01 08:32:35 51°18.085 3°1.233 -999 -999 -999  
2002-08-01 08:32:39 51°18.094 3°1.254 -999 -999 -999  
2002-08-01 08:32:44 51°18.104 3°1.279 -999 -999 -999  
2002-08-01 08:32:49 51°18.114 3°1.304 -999 -999 -999  
2002-08-01 08:32:55 51°18.127 3°1.335 -999 -999 -999  
2002-08-01 08:33:00 51°18.137 3°1.36 -999 -999 -999  
2002-08-01 08:33:05 51°18.147 3°1.386 -999 -999 -999  
2002-08-01 08:33:09 51°18.155 3°1.406 -999 -999 -999  
2002-08-01 08:33:15 51°18.167 3°1.436 -999 -999 -999  
2002-08-01 08:33:20 51°18.177 3°1.461 -999 -999 -999  
2002-08-01 08:33:24 51°18.185 3°1.482 -999 -999 -999  
2002-08-01 08:33:29 51°18.196 3°1.507 -999 -999 -999  
2002-08-01 08:33:35 51°18.208 3°1.536 -999 -999 -999  
2002-08-01 08:33:39 51°18.216 3°1.556 -999 -999 -999  
2002-08-01 08:33:45 51°18.229 3°1.586 -999 -999 -999  
2002-08-01 08:33:49 51°18.238 3°1.605 -999 -999 -999  
2002-08-01 08:33:54 51°18.249 3°1.63 -999 -999 -999  
2002-08-01 08:33:59 51°18.259 3°1.655 -999 -999 -999  
2002-08-01 08:34:05 51°18.272 3°1.685 -999 -999 -999  
2002-08-01 08:34:09 51°18.28 3°1.705 -999 -999 -999  
2002-08-01 08:34:15 51°18.292 3°1.735 -999 -999 -999  
2002-08-01 08:34:19 51°18.3 3°1.755 -999 -999 -999  
2002-08-01 08:34:25 51°18.312 3°1.786 -999 -999 -999  
2002-08-01 08:34:29 51°18.32 3°1.806 -999 -999 -999  
2002-08-01 08:34:34 51°18.329 3°1.832 -999 -999 -999  
2002-08-01 08:34:39 51°18.339 3°1.858 -999 -999 -999  
2002-08-01 08:34:45 51°18.35 3°1.89 -999 -999 -999  
2002-08-01 08:34:49 51°18.357 3°1.91 -999 -999 -999  
2002-08-01 08:34:55 51°18.369 3°1.941 -999 -999 -999  
2002-08-01 08:35:00 51°18.379 3°1.967 -999 -999 -999  
2002-08-01 08:35:04 51°18.387 3°1.987 -999 -999 -999  
2002-08-01 08:35:09 51°18.398 3°2.012 -999 -999 -999  
2002-08-01 08:35:14 51°18.408 3°2.037 -999 -999 -999  
2002-08-01 08:35:19 51°18.418 3°2.062 -999 -999 -999  
2002-08-01 08:35:25 51°18.431 3°2.092 -999 -999 -999  
2002-08-01 08:35:29 51°18.439 3°2.112 -999 -999 -999  
2002-08-01 08:35:35 51°18.451 3°2.142 -999 -999 -999  
2002-08-01 08:35:39 51°18.459 3°2.162 -999 -999 -999  
2002-08-01 08:35:45 51°18.471 3°2.193 -999 -999 -999  
2002-08-01 08:35:49 51°18.478 3°2.213 -999 -999 -999  
2002-08-01 08:35:55 51°18.49 3°2.244 -999 -999 -999  
2002-08-01 08:35:59 51°18.498 3°2.265 -999 -999 -999  
2002-08-01 08:36:05 51°18.51 3°2.295 -999 -999 -999  
2002-08-01 08:36:09 51°18.517 3°2.315 -999 -999 -999  
2002-08-01 08:36:15 51°18.529 3°2.346 -999 -999 -999  
2002-08-01 08:36:19 51°18.537 3°2.367 -999 -999 -999  
2002-08-01 08:36:25 51°18.549 3°2.397 -999 -999 -999  
2002-08-01 08:36:29 51°18.557 3°2.417 -999 -999 -999  
2002-08-01 08:36:35 51°18.57 3°2.447 -999 -999 -999  
2002-08-01 08:36:39 51°18.578 3°2.467 -999 -999 -999  
2002-08-01 08:36:45 51°18.591 3°2.496 -999 -999 -999  
2002-08-01 08:36:49 51°18.599 3°2.516 -999 -999 -999  
2002-08-01 08:36:55 51°18.612 3°2.546 -999 -999 -999  
2002-08-01 08:37:00 51°18.622 3°2.57 -999 -999 -999  
2002-08-01 08:37:05 51°18.632 3°2.595 -999 -999 -999  
2002-08-01 08:37:09 51°18.64 3°2.615 -999 -999 -999  
2002-08-01 08:37:15 51°18.651 3°2.646 -999 -999 -999  
2002-08-01 08:37:20 51°18.661 3°2.671 -999 -999 -999  
2002-08-01 08:37:24 51°18.668 3°2.692 -999 -999 -999  
2002-08-01 08:37:29 51°18.677 3°2.718 -999 -999 -999  
2002-08-01 08:37:34 51°18.686 3°2.744 -999 -999 -999  
2002-08-01 08:37:39 51°18.696 3°2.769 -999 -999 -999  
2002-08-01 08:37:45 51°18.707 3°2.799 -999 -999 -999  
2002-08-01 08:37:49 51°18.715 3°2.819 -999 -999 -999  
2002-08-01 08:37:55 51°18.728 3°2.848 -999 -999 -999  
2002-08-01 08:37:59 51°18.737 3°2.867 -999 -999 -999  
2002-08-01 08:38:05 51°18.75 3°2.896 -999 -999 -999  
2002-08-01 08:38:09 51°18.759 3°2.915 -999 -999 -999  
2002-08-01 08:38:15 51°18.772 3°2.943 -999 -999 -999  
2002-08-01 08:38:19 51°18.782 3°2.962 -999 -999 -999  
2002-08-01 08:38:25 51°18.795 3°2.989 -999 -999 -999  
2002-08-01 08:38:29 51°18.804 3°3.008 -999 -999 -999  
2002-08-01 08:38:34 51°18.816 3°3.031 -999 -999 -999  
2002-08-01 08:38:39 51°18.827 3°3.055 -999 -999 -999  
2002-08-01 08:38:45 51°18.84 3°3.083 -999 -999 -999  
2002-08-01 08:38:49 51°18.849 3°3.102 -999 -999 -999  
2002-08-01 08:38:55 51°18.862 3°3.131 -999 -999 -999  
2002-08-01 08:39:00 51°18.873 3°3.155 -999 -999 -999  
2002-08-01 08:39:04 51°18.882 3°3.174 -999 -999 -999  
2002-08-01 08:39:09 51°18.893 3°3.198 -999 -999 -999  
2002-08-01 08:39:14 51°18.904 3°3.222 -999 -999 -999  
2002-08-01 08:39:19 51°18.915 3°3.245 -999 -999 -999  
2002-08-01 08:39:25 51°18.929 3°3.273 -999 -999 -999  
2002-08-01 08:39:29 51°18.939 3°3.291 -999 -999 -999  
2002-08-01 08:39:35 51°18.953 3°3.318 -999 -999 -999  
2002-08-01 08:39:39 51°18.962 3°3.337 -999 -999 -999  
2002-08-01 08:39:45 51°18.976 3°3.364 -999 -999 -999  
2002-08-01 08:39:49 51°18.986 3°3.383 -999 -999 -999  
2002-08-01 08:39:55 51°19 3°3.41 -999 -999 -999  
2002-08-01 08:40:00 51°19.011 3°3.433 -999 -999 -999  
2002-08-01 08:40:04 51°19.02 3°3.452 -999 -999 -999  
2002-08-01 08:40:09 51°19.031 3°3.476 -999 -999 -999  
2002-08-01 08:40:15 51°19.043 3°3.506 -999 -999 -999  
2002-08-01 08:40:19 51°19.051 3°3.525 -999 -999 -999  
2002-08-01 08:40:24 51°19.061 3°3.551 -999 -999 -999  
2002-08-01 08:40:29 51°19.071 3°3.576 -999 -999 -999  
2002-08-01 08:40:35 51°19.082 3°3.606 -999 -999 -999  
2002-08-01 08:40:40 51°19.091 3°3.631 -999 -999 -999  
2002-08-01 08:40:45 51°19.101 3°3.656 -999 -999 -999  
2002-08-01 08:40:49 51°19.109 3°3.675 -999 -999 -999  
2002-08-01 08:40:54 51°19.119 3°3.7 -999 -999 -999  
2002-08-01 08:40:59 51°19.129 3°3.724 -999 -999 -999  
2002-08-01 08:41:05 51°19.143 3°3.752 -999 -999 -999  
2002-08-01 08:41:09 51°19.152 3°3.771 -999 -999 -999  
2002-08-01 08:41:15 51°19.165 3°3.799 -999 -999 -999  
2002-08-01 08:41:20 51°19.177 3°3.822 -999 -999 -999  
2002-08-01 08:41:25 51°19.188 3°3.845 -999 -999 -999  
2002-08-01 08:41:29 51°19.197 3°3.864 -999 -999 -999  
2002-08-01 08:41:35 51°19.212 3°3.891 -999 -999 -999  
2002-08-01 08:41:40 51°19.222 3°3.915 -999 -999 -999  
2002-08-01 08:41:45 51°19.233 3°3.939 -999 -999 -999  
2002-08-01 08:41:49 51°19.242 3°3.959 -999 -999 -999  
2002-08-01 08:41:55 51°19.254 3°3.988 -999 -999 -999  
2002-08-01 08:41:59 51°19.262 3°4.008 -999 -999 -999  
2002-08-01 08:42:05 51°19.274 3°4.038 -999 -999 -999  
2002-08-01 08:42:09 51°19.282 3°4.059 -999 -999 -999  
2002-08-01 08:42:15 51°19.293 3°4.089 -999 -999 -999  
2002-08-01 08:42:20 51°19.303 3°4.114 -999 -999 -999  
2002-08-01 08:42:25 51°19.313 3°4.138 -999 -999 -999  
2002-08-01 08:42:29 51°19.322 3°4.157 -999 -999 -999  
2002-08-01 08:42:35 51°19.335 3°4.185 -999 -999 -999  
2002-08-01 08:42:39 51°19.344 3°4.204 -999 -999 -999  
2002-08-01 08:42:45 51°19.358 3°4.231 -999 -999 -999  
2002-08-01 08:42:49 51°19.367 3°4.249 -999 -999 -999  
2002-08-01 08:42:55 51°19.382 3°4.275 -999 -999 -999  
2002-08-01 08:42:59 51°19.391 3°4.293 -999 -999 -999  
2002-08-01 08:43:05 51°19.406 3°4.319 -999 -999 -999  
2002-08-01 08:43:09 51°19.415 3°4.336 -999 -999 -999  
2002-08-01 08:43:15 51°19.43 3°4.362 -999 -999 -999  
2002-08-01 08:43:20 51°19.442 3°4.384 -999 -999 -999  
2002-08-01 08:43:25 51°19.454 3°4.407 -999 -999 -999  
2002-08-01 08:43:29 51°19.463 3°4.425 -999 -999 -999  
2002-08-01 08:43:35 51°19.476 3°4.452 -999 -999 -999  
2002-08-01 08:43:40 51°19.488 3°4.476 -999 -999 -999  
2002-08-01 08:43:45 51°19.498 3°4.499 -999 -999 -999  
2002-08-01 08:43:49 51°19.507 3°4.518 -999 -999 -999  
2002-08-01 08:43:54 51°19.518 3°4.542 -999 -999 -999  
2002-08-01 08:43:59 51°19.529 3°4.565 -999 -999 -999  
2002-08-01 08:44:05 51°19.542 3°4.594 -999 -999 -999  
2002-08-01 08:44:09 51°19.551 3°4.612 -999 -999 -999  
2002-08-01 08:44:15 51°19.564 3°4.64 -999 -999 -999  
2002-08-01 08:44:19 51°19.574 3°4.658 -999 -999 -999  
2002-08-01 08:44:24 51°19.585 3°4.681 -999 -999 -999  
2002-08-01 08:44:29 51°19.597 3°4.702 -999 -999 -999  
2002-08-01 08:44:34 51°19.609 3°4.725 -999 -999 -999  
2002-08-01 08:44:39 51°19.621 3°4.746 -999 -999 -999  
2002-08-01 08:44:45 51°19.636 3°4.773 -999 -999 -999  
2002-08-01 08:44:49 51°19.645 3°4.79 -999 -999 -999  
2002-08-01 08:44:54 51°19.657 3°4.812 -999 -999 -999  
2002-08-01 08:44:59 51°19.669 3°4.835 -999 -999 -999  
2002-08-01 08:45:05 51°19.683 3°4.862 -999 -999 -999  
2002-08-01 08:45:09 51°19.692 3°4.88 -999 -999 -999  
2002-08-01 08:45:15 51°19.706 3°4.907 -999 -999 -999  
2002-08-01 08:45:19 51°19.715 3°4.925 -999 -999 -999  
2002-08-01 08:45:25 51°19.729 3°4.953 -999 -999 -999  
2002-08-01 08:45:29 51°19.738 3°4.971 -999 -999 -999  
2002-08-01 08:45:34 51°19.749 3°4.994 -999 -999 -999  
2002-08-01 08:45:39 51°19.761 3°5.016 -999 -999 -999  
2002-08-01 08:45:45 51°19.774 3°5.043 -999 -999 -999  
2002-08-01 08:45:49 51°19.784 3°5.061 -999 -999 -999  
2002-08-01 08:45:55 51°19.798 3°5.088 -999 -999 -999  
2002-08-01 08:46:00 51°19.809 3°5.111 -999 -999 -999  
2002-08-01 08:46:05 51°19.821 3°5.133 -999 -999 -999  
2002-08-01 08:46:09 51°19.83 3°5.151 -999 -999 -999  
2002-08-01 08:46:15 51°19.845 3°5.176 -999 -999 -999  
2002-08-01 08:46:20 51°19.858 3°5.198 -999 -999 -999  
2002-08-01 08:46:25 51°19.87 3°5.219 -999 -999 -999  
2002-08-01 08:46:29 51°19.88 3°5.237 -999 -999 -999  
2002-08-01 08:46:35 51°19.894 3°5.264 -999 -999 -999  
2002-08-01 08:46:40 51°19.905 3°5.286 -999 -999 -999  
2002-08-01 08:46:45 51°19.916 3°5.309 -999 -999 -999  
2002-08-01 08:46:49 51°19.925 3°5.328 -999 -999 -999  
2002-08-01 08:46:55 51°19.938 3°5.355 -999 -999 -999  
2002-08-01 08:47:00 51°19.949 3°5.379 -999 -999 -999  
2002-08-01 08:47:05 51°19.959 3°5.402 -999 -999 -999  
2002-08-01 08:47:09 51°19.968 3°5.421 -999 -999 -999  
2002-08-01 08:47:15 51°19.981 3°5.449 -999 -999 -999  
2002-08-01 08:47:20 51°19.991 3°5.473 -999 -999 -999  
2002-08-01 08:47:24 51°20 3°5.491 -999 -999 -999  
2002-08-01 08:47:29 51°20.012 3°5.514 -999 -999 -999  
2002-08-01 08:47:35 51°20.025 3°5.541 -999 -999 -999  
2002-08-01 08:47:39 51°20.034 3°5.558 -999 -999 -999  
2002-08-01 08:47:45 51°20.049 3°5.583 -999 -999 -999  
2002-08-01 08:47:49 51°20.059 3°5.6 -999 -999 -999  
2002-08-01 08:47:54 51°20.072 3°5.621 -999 -999 -999  
2002-08-01 08:47:59 51°20.084 3°5.642 -999 -999 -999  
2002-08-01 08:48:05 51°20.099 3°5.668 -999 -999 -999  
2002-08-01 08:48:09 51°20.109 3°5.685 -999 -999 -999  
2002-08-01 08:48:15 51°20.123 3°5.711 -999 -999 -999  
2002-08-01 08:48:20 51°20.135 3°5.733 -999 -999 -999  
2002-08-01 08:48:25 51°20.146 3°5.756 -999 -999 -999  
2002-08-01 08:48:29 51°20.155 3°5.774 -999 -999 -999  
2002-08-01 08:48:34 51°20.166 3°5.797 -999 -999 -999  
2002-08-01 08:48:39 51°20.176 3°5.82 -999 -999 -999  
2002-08-01 08:48:45 51°20.189 3°5.849 -999 -999 -999  
2002-08-01 08:48:49 51°20.196 3°5.868 -999 -999 -999  
2002-08-01 08:48:55 51°20.209 3°5.896 -999 -999 -999  
2002-08-01 08:48:59 51°20.217 3°5.915 -999 -999 -999  
2002-08-01 08:49:05 51°20.23 3°5.943 -999 -999 -999  
2002-08-01 08:49:09 51°20.239 3°5.961 -999 -999 -999  
2002-08-01 08:49:15 51°20.253 3°5.987 -999 -999 -999  
2002-08-01 08:49:20 51°20.265 3°6.009 -999 -999 -999  
2002-08-01 08:49:25 51°20.277 3°6.03 -999 -999 -999  
2002-08-01 08:49:29 51°20.287 3°6.047 -999 -999 -999  
2002-08-01 08:49:34 51°20.3 3°6.067 -999 -999 -999  
2002-08-01 08:49:39 51°20.313 3°6.087 -999 -999 -999  
2002-08-01 08:49:44 51°20.325 3°6.108 -999 -999 -999  
2002-08-01 08:49:49 51°20.338 3°6.128 -999 -999 -999  
2002-08-01 08:49:55 51°20.352 3°6.154 -999 -999 -999  
2002-08-01 08:50:00 51°20.363 3°6.176 -999 -999 -999  
2002-08-01 08:50:05 51°20.375 3°6.199 -999 -999 -999  
2002-08-01 08:50:09 51°20.383 3°6.218 -999 -999 -999  
2002-08-01 08:50:14 51°20.393 3°6.241 -999 -999 -999  
2002-08-01 08:50:19 51°20.403 3°6.266 -999 -999 -999  
2002-08-01 08:50:25 51°20.415 3°6.295 -999 -999 -999  
2002-08-01 08:50:29 51°20.423 3°6.314 -999 -999 -999  
2002-08-01 08:50:35 51°20.434 3°6.343 -999 -999 -999  
2002-08-01 08:50:40 51°20.444 3°6.366 -999 -999 -999  
2002-08-01 08:50:45 51°20.455 3°6.389 -999 -999 -999  
2002-08-01 08:50:49 51°20.464 3°6.406 -999 -999 -999  
2002-08-01 08:50:55 51°20.478 3°6.432 -999 -999 -999  
2002-08-01 08:50:59 51°20.488 3°6.449 -999 -999 -999  
2002-08-01 08:51:05 51°20.504 3°6.473 -999 -999 -999  
2002-08-01 08:51:09 51°20.515 3°6.488 -999 -999 -999  
2002-08-01 08:51:15 51°20.531 3°6.51 -999 -999 -999  
2002-08-01 08:51:20 51°20.545 3°6.528 -999 -999 -999  
2002-08-01 08:51:24 51°20.556 3°6.542 -999 -999 -999  
2002-08-01 08:51:29 51°20.57 3°6.559 -999 -999 -999  
2002-08-01 08:51:35 51°20.587 3°6.581 -999 -999 -999  
2002-08-01 08:51:39 51°20.598 3°6.596 -999 -999 -999  
2002-08-01 08:51:45 51°20.614 3°6.618 -999 -999 -999  
2002-08-01 08:51:49 51°20.625 3°6.633 -999 -999 -999  
2002-08-01 08:51:55 51°20.64 3°6.657 -999 -999 -999  
2002-08-01 08:51:59 51°20.65 3°6.674 -999 -999 -999  
2002-08-01 08:52:05 51°20.664 3°6.699 -999 -999 -999  
2002-08-01 08:52:09 51°20.674 3°6.717 -999 -999 -999  
2002-08-01 08:52:15 51°20.688 3°6.743 -999 -999 -999  
2002-08-01 08:52:20 51°20.699 3°6.764 -999 -999 -999  
2002-08-01 08:52:25 51°20.711 3°6.785 -999 -999 -999  
2002-08-01 08:52:29 51°20.721 3°6.801 -999 -999 -999  
2002-08-01 08:52:35 51°20.737 3°6.823 -999 -999 -999  
2002-08-01 08:52:39 51°20.749 3°6.837 -999 -999 -999  
2002-08-01 08:52:44 51°20.763 3°6.853 -999 -999 -999  
2002-08-01 08:52:49 51°20.778 3°6.869 -999 -999 -999  
2002-08-01 08:52:55 51°20.796 3°6.887 -999 -999 -999  
2002-08-01 08:53:00 51°20.81 3°6.903 -999 -999 -999  
2002-08-01 08:53:04 51°20.822 3°6.917 -999 -999 -999  
2002-08-01 08:53:09 51°20.837 3°6.933 -999 -999 -999  
2002-08-01 08:53:15 51°20.854 3°6.953 -999 -999 -999  
2002-08-01 08:53:19 51°20.866 3°6.965 -999 -999 -999  
2002-08-01 08:53:25 51°20.884 3°6.984 -999 -999 -999  
2002-08-01 08:53:29 51°20.896 3°6.996 -999 -999 -999  
2002-08-01 08:53:35 51°20.915 3°7.014 -999 -999 -999  
2002-08-01 08:53:39 51°20.927 3°7.026 -999 -999 -999  
2002-08-01 08:53:45 51°20.946 3°7.043 -999 -999 -999  
2002-08-01 08:53:49 51°20.959 3°7.055 -999 -999 -999  
2002-08-01 08:53:55 51°20.977 3°7.073 -999 -999 -999  
2002-08-01 08:54:00 51°20.993 3°7.089 -999 -999 -999  
2002-08-01 08:54:04 51°21.004 3°7.102 -999 -999 -999  
2002-08-01 08:54:09 51°21.019 3°7.119 -999 -999 -999  
2002-08-01 08:54:14 51°21.033 3°7.138 -999 -999 -999  
2002-08-01 08:54:19 51°21.047 3°7.157 -999 -999 -999  
2002-08-01 08:54:25 51°21.063 3°7.181 -999 -999 -999  
2002-08-01 08:54:29 51°21.074 3°7.197 -999 -999 -999  
2002-08-01 08:54:35 51°21.089 3°7.221 -999 -999 -999  
2002-08-01 08:54:39 51°21.1 3°7.238 -999 -999 -999  
2002-08-01 08:54:45 51°21.115 3°7.262 -999 -999 -999  
2002-08-01 08:54:49 51°21.126 3°7.278 -999 -999 -999  
2002-08-01 08:54:53 51°21.137 3°7.293 -999 -999 -999  
2002-08-01 08:54:59 51°21.154 3°7.315 -999 -999 -999  
2002-08-01 08:55:05 51°21.172 3°7.337 -999 -999 -999  
2002-08-01 08:55:09 51°21.183 3°7.352 -999 -999 -999  
2002-08-01 08:55:15 51°21.201 3°7.374 -999 -999 -999  
2002-08-01 08:55:20 51°21.216 3°7.392 -999 -999 -999  
2002-08-01 08:55:25 51°21.23 3°7.411 -999 -999 -999  
2002-08-01 08:55:29 51°21.241 3°7.426 -999 -999 -999  
2002-08-01 08:55:35 51°21.258 3°7.449 -999 -999 -999  
2002-08-01 08:55:39 51°21.27 3°7.464 -999 -999 -999  
2002-08-01 08:55:45 51°21.287 3°7.487 -999 -999 -999  
2002-08-01 08:55:49 51°21.298 3°7.503 -999 -999 -999  
2002-08-01 08:55:55 51°21.315 3°7.527 -999 -999 -999  
2002-08-01 08:55:59 51°21.327 3°7.543 -999 -999 -999  
2002-08-01 08:56:05 51°21.344 3°7.566 -999 -999 -999  
2002-08-01 08:56:09 51°21.356 3°7.582 -999 -999 -999  
2002-08-01 08:56:15 51°21.374 3°7.604 -999 -999 -999  
2002-08-01 08:56:20 51°21.388 3°7.624 -999 -999 -999  
2002-08-01 08:56:24 51°21.4 3°7.638 -999 -999 -999  
2002-08-01 08:56:29 51°21.414 3°7.658 -999 -999 -999  
2002-08-01 08:56:35 51°21.432 3°7.681 -999 -999 -999  
2002-08-01 08:56:39 51°21.444 3°7.696 -999 -999 -999  
2002-08-01 08:56:45 51°21.461 3°7.719 -999 -999 -999  
2002-08-01 08:56:49 51°21.473 3°7.734 -999 -999 -999  
2002-08-01 08:56:55 51°21.49 3°7.758 -999 -999 -999  
2002-08-01 08:57:00 51°21.505 3°7.777 -999 -999 -999  
2002-08-01 08:57:05 51°21.52 3°7.796 -999 -999 -999  
2002-08-01 08:57:09 51°21.531 3°7.812 -999 -999 -999  
2002-08-01 08:57:15 51°21.548 3°7.835 -999 -999 -999  
2002-08-01 08:57:20 51°21.562 3°7.855 -999 -999 -999  
2002-08-01 08:57:25 51°21.577 3°7.875 -999 -999 -999  
2002-08-01 08:57:29 51°21.588 3°7.891 -999 -999 -999  
2002-08-01 08:57:35 51°21.605 3°7.915 -999 -999 -999  
2002-08-01 08:57:40 51°21.62 3°7.935 -999 -999 -999  
2002-08-01 08:57:45 51°21.634 3°7.955 -999 -999 -999  
2002-08-01 08:57:49 51°21.645 3°7.971 -999 -999 -999  
2002-08-01 08:57:55 51°21.662 3°7.995 -999 -999 -999  
2002-08-01 08:58:00 51°21.676 3°8.015 -999 -999 -999  
2002-08-01 08:58:05 51°21.691 3°8.034 -999 -999 -999  
2002-08-01 08:58:09 51°21.702 3°8.05 -999 -999 -999  
2002-08-01 08:58:15 51°21.72 3°8.074 -999 -999 -999  
2002-08-01 08:58:20 51°21.734 3°8.093 -999 -999 -999  
2002-08-01 08:58:24 51°21.746 3°8.109 -999 -999 -999  
2002-08-01 08:58:29 51°21.76 3°8.128 -999 -999 -999  
2002-08-01 08:58:35 51°21.777 3°8.152 -999 -999 -999  
2002-08-01 08:58:39 51°21.789 3°8.168 -999 -999 -999  
2002-08-01 08:58:45 51°21.806 3°8.192 -999 -999 -999  
2002-08-01 08:58:49 51°21.817 3°8.208 -999 -999 -999  
2002-08-01 08:58:55 51°21.834 3°8.232 -999 -999 -999  
2002-08-01 08:58:59 51°21.846 3°8.247 -999 -999 -999  
2002-08-01 08:59:05 51°21.863 3°8.271 -999 -999 -999  
2002-08-01 08:59:09 51°21.875 3°8.287 -999 -999 -999  
2002-08-01 08:59:15 51°21.892 3°8.311 -999 -999 -999  
2002-08-01 08:59:20 51°21.906 3°8.33 -999 -999 -999  
2002-08-01 08:59:25 51°21.92 3°8.35 -999 -999 -999  
2002-08-01 08:59:29 51°21.932 3°8.366 -999 -999 -999  
2002-08-01 08:59:35 51°21.949 3°8.39 -999 -999 -999  
2002-08-01 08:59:40 51°21.963 3°8.41 -999 -999 -999  
2002-08-01 08:59:45 51°21.978 3°8.43 -999 -999 -999  
2002-08-01 08:59:49 51°21.989 3°8.446 -999 -999 -999  
2002-08-01 08:59:55 51°22.006 3°8.469 -999 -999 -999  
2002-08-01 09:00:00 51°22.02 3°8.49 -999 -999 -999  
2002-08-01 09:00:05 51°22.035 3°8.509 -999 -999 -999  
2002-08-01 09:00:09 51°22.046 3°8.525 -999 -999 -999  
2002-08-01 09:00:15 51°22.063 3°8.549 -999 -999 -999  
2002-08-01 09:00:19 51°22.075 3°8.565 -999 -999 -999  
2002-08-01 09:00:25 51°22.092 3°8.589 -999 -999 -999  
2002-08-01 09:00:29 51°22.103 3°8.605 -999 -999 -999  
2002-08-01 09:00:35 51°22.121 3°8.629 -999 -999 -999  
2002-08-01 09:00:39 51°22.132 3°8.645 -999 -999 -999  
2002-08-01 09:00:45 51°22.149 3°8.668 -999 -999 -999  
2002-08-01 09:00:49 51°22.161 3°8.684 -999 -999 -999  
2002-08-01 09:00:55 51°22.178 3°8.707 -999 -999 -999  
2002-08-01 09:01:00 51°22.193 3°8.727 -999 -999 -999  
2002-08-01 09:01:05 51°22.207 3°8.747 -999 -999 -999  
2002-08-01 09:01:09 51°22.218 3°8.763 -999 -999 -999  
2002-08-01 09:01:14 51°22.233 3°8.783 -999 -999 -999  
2002-08-01 09:01:19 51°22.247 3°8.803 -999 -999 -999  
2002-08-01 09:01:25 51°22.265 3°8.826 -999 -999 -999  
2002-08-01 09:01:29 51°22.276 3°8.842 -999 -999 -999  
2002-08-01 09:01:35 51°22.293 3°8.866 -999 -999 -999  
2002-08-01 09:01:40 51°22.308 3°8.886 -999 -999 -999  
2002-08-01 09:01:45 51°22.322 3°8.906 -999 -999 -999  
2002-08-01 09:01:49 51°22.334 3°8.922 -999 -999 -999  
2002-08-01 09:01:55 51°22.352 3°8.946 -999 -999 -999  
2002-08-01 09:01:59 51°22.363 3°8.962 -999 -999 -999  
2002-08-01 09:02:05 51°22.381 3°8.985 -999 -999 -999  
2002-08-01 09:02:09 51°22.393 3°9.001 -999 -999 -999  
2002-08-01 09:02:13 51°22.404 3°9.017 -999 -999 -999  
2002-08-01 09:02:20 51°22.425 3°9.044 -999 -999 -999  
2002-08-01 09:02:25 51°22.44 3°9.064 -999 -999 -999  
2002-08-01 09:02:29 51°22.451 3°9.079 -999 -999 -999  
2002-08-01 09:02:35 51°22.467 3°9.1 -999 -999 -999  
2002-08-01 09:02:39 51°22.476 3°9.114 -999 -999 -999  
2002-08-01 09:02:45 51°22.489 3°9.134 -999 -999 -999  
2002-08-01 09:02:49 51°22.497 3°9.147 -999 -999 -999  
2002-08-01 09:02:55 51°22.507 3°9.166 -999 -999 -999  
2002-08-01 09:03:00 51°22.515 3°9.182 -999 -999 -999  
2002-08-01 09:03:05 51°22.523 3°9.196 -999 -999 -999  
2002-08-01 09:03:09 51°22.529 3°9.208 -999 -999 -999  
2002-08-01 09:03:15 51°22.538 3°9.224 -999 -999 -999  
2002-08-01 09:03:20 51°22.545 3°9.237 -999 -999 -999  
2002-08-01 09:03:25 51°22.552 3°9.25 -999 -999 -999  
2002-08-01 09:03:29 51°22.558 3°9.26 -999 -999 -999  
2002-08-01 09:03:35 51°22.566 3°9.275 -999 -999 -999  
2002-08-01 09:03:40 51°22.572 3°9.287 -999 -999 -999  
2002-08-01 09:03:45 51°22.579 3°9.297 -999 -999 -999  
2002-08-01 09:03:49 51°22.584 3°9.307 -999 -999 -999  
2002-08-01 09:03:54 51°22.59 3°9.317 -999 -999 -999  
2002-08-01 09:04:00 51°22.597 3°9.331 -999 -999 -999  
2002-08-01 09:04:04 51°22.602 3°9.339 -999 -999 -999  
2002-08-01 09:04:09 51°22.607 3°9.349 -999 -999 -999  
2002-08-01 09:04:15 51°22.613 3°9.36 -999 -999 -999  
2002-08-01 09:04:20 51°22.618 3°9.37 -999 -999 -999  
2002-08-01 09:04:25 51°22.623 3°9.379 -999 -999 -999  
2002-08-01 09:04:29 51°22.626 3°9.386 -999 -999 -999  
2002-08-01 09:04:35 51°22.632 3°9.396 -999 -999 -999  
2002-08-01 09:04:39 51°22.635 3°9.403 -999 -999 -999  
2002-08-01 09:04:45 51°22.64 3°9.413 -999 -999 -999  
2002-08-01 09:04:49 51°22.644 3°9.419 -999 -999 -999  
2002-08-01 09:04:54 51°22.648 3°9.426 -999 -999 -999  
2002-08-01 09:04:59 51°22.652 3°9.433 -999 -999 -999  
2002-08-01 09:05:05 51°22.656 3°9.441 -999 -999 -999  
2002-08-01 09:05:09 51°22.66 3°9.446 -999 -999 -999  
2002-08-01 09:05:14 51°22.664 3°9.451 -999 -999 -999  
2002-08-01 09:05:19 51°22.668 3°9.457 -999 -999 -999  
2002-08-01 09:05:25 51°22.672 3°9.463 -999 -999 -999  
2002-08-01 09:05:29 51°22.675 3°9.467 -999 -999 -999  
2002-08-01 09:05:35 51°22.68 3°9.472 -999 -999 -999  
2002-08-01 09:05:40 51°22.683 3°9.475 -999 -999 -999  
2002-08-01 09:05:45 51°22.687 3°9.478 -999 -999 -999  
2002-08-01 09:05:49 51°22.689 3°9.48 -999 -999 -999  
2002-08-01 09:05:55 51°22.691 3°9.481 -999 -999 -999  
2002-08-01 09:05:59 51°22.692 3°9.481 -999 -999 -999  
2002-08-01 09:06:05 51°22.693 3°9.481 -999 -999 -999  
2002-08-01 09:06:09 51°22.694 3°9.48 -999 -999 -999  
2002-08-01 09:06:15 51°22.694 3°9.48 -999 -999 -999  
2002-08-01 09:06:20 51°22.694 3°9.479 -999 -999 -999  
2002-08-01 09:06:25 51°22.694 3°9.478 -999 -999 -999  
2002-08-01 09:06:29 51°22.694 3°9.478 -999 -999 -999  
2002-08-01 09:06:35 51°22.695 3°9.477 -999 -999 -999  
2002-08-01 09:06:39 51°22.695 3°9.477 -999 -999 -999  
2002-08-01 09:06:44 51°22.695 3°9.476 -999 -999 -999  
2002-08-01 09:06:49 51°22.695 3°9.475 -999 -999 -999  
2002-08-01 09:06:54 51°22.695 3°9.474 -999 -999 -999  
2002-08-01 09:06:59 51°22.696 3°9.474 -999 -999 -999  
2002-08-01 09:07:04 51°22.696 3°9.473 -999 -999 -999  
2002-08-01 09:07:09 51°22.696 3°9.472 -999 -999 -999  
2002-08-01 09:07:14 51°22.696 3°9.471 -999 -999 -999  
2002-08-01 09:07:19 51°22.697 3°9.47 -999 -999 -999  
2002-08-01 09:07:24 51°22.697 3°9.469 -999 -999 -999  
2002-08-01 09:07:29 51°22.697 3°9.469 -999 -999 -999  
2002-08-01 09:07:34 51°22.697 3°9.468 -999 -999 -999  
2002-08-01 09:07:39 51°22.698 3°9.467 -999 -999 -999  
2002-08-01 09:07:44 51°22.698 3°9.466 -999 -999 -999  
2002-08-01 09:07:49 51°22.698 3°9.466 -999 -999 -999  
2002-08-01 09:07:54 51°22.698 3°9.465 -999 -999 -999  
2002-08-01 09:07:59 51°22.699 3°9.464 -999 -999 -999  
2002-08-01 09:08:04 51°22.699 3°9.463 -999 -999 -999  
2002-08-01 09:08:09 51°22.699 3°9.462 -999 -999 -999  
2002-08-01 09:08:14 51°22.699 3°9.462 -999 -999 -999  
2002-08-01 09:08:19 51°22.7 3°9.461 -999 -999 -999  
2002-08-01 09:08:24 51°22.7 3°9.46 -999 -999 -999  
2002-08-01 09:08:29 51°22.7 3°9.459 -999 -999 -999  
2002-08-01 09:08:34 51°22.7 3°9.459 -999 -999 -999  
2002-08-01 09:08:39 51°22.701 3°9.458 -999 -999 -999  
2002-08-01 09:08:44 51°22.701 3°9.457 -999 -999 -999  
2002-08-01 09:08:49 51°22.701 3°9.457 -999 -999 -999  
2002-08-01 09:08:54 51°22.702 3°9.456 -999 -999 -999  
2002-08-01 09:08:59 51°22.702 3°9.455 -999 -999 -999  
2002-08-01 09:09:04 51°22.702 3°9.455 -999 -999 -999  
2002-08-01 09:09:09 51°22.703 3°9.454 -999 -999 -999  
2002-08-01 09:09:15 51°22.704 3°9.454 -999 -999 -999  
2002-08-01 09:09:19 51°22.704 3°9.453 -999 -999 -999  
2002-08-01 09:09:24 51°22.705 3°9.453 -999 -999 -999  
2002-08-01 09:09:29 51°22.705 3°9.452 -999 -999 -999  
2002-08-01 09:09:34 51°22.706 3°9.452 -999 -999 -999  
2002-08-01 09:09:39 51°22.707 3°9.451 -999 -999 -999  
2002-08-01 09:09:44 51°22.708 3°9.451 -999 -999 -999  
2002-08-01 09:09:49 51°22.709 3°9.451 -999 -999 -999  
2002-08-01 09:09:54 51°22.71 3°9.45 -999 -999 -999  
2002-08-01 09:09:59 51°22.711 3°9.45 -999 -999 -999  
2002-08-01 09:10:04 51°22.713 3°9.45 -999 -999 -999  
2002-08-01 09:10:09 51°22.714 3°9.45 -999 -999 -999  
2002-08-01 09:10:14 51°22.715 3°9.45 -999 -999 -999  
2002-08-01 09:10:19 51°22.716 3°9.45 -999 -999 -999  
2002-08-01 09:10:24 51°22.718 3°9.45 -999 -999 -999  
2002-08-01 09:10:29 51°22.719 3°9.45 -999 -999 -999  
2002-08-01 09:10:34 51°22.721 3°9.45 -999 -999 -999  
2002-08-01 09:10:39 51°22.722 3°9.45 -999 -999 -999  
2002-08-01 09:10:44 51°22.723 3°9.45 -999 -999 -999  
2002-08-01 09:10:49 51°22.725 3°9.45 -999 -999 -999  
2002-08-01 09:10:53 51°22.726 3°9.45 -999 -999 -999  
2002-08-01 09:10:59 51°22.727 3°9.45 -999 -999 -999  
2002-08-01 09:11:04 51°22.729 3°9.45 -999 -999 -999  
2002-08-01 09:11:09 51°22.73 3°9.45 -999 -999 -999  
2002-08-01 09:11:14 51°22.731 3°9.451 -999 -999 -999  
2002-08-01 09:11:19 51°22.733 3°9.451 -999 -999 -999  
2002-08-01 09:11:24 51°22.734 3°9.451 -999 -999 -999  
2002-08-01 09:11:29 51°22.735 3°9.452 -999 -999 -999  
2002-08-01 09:11:34 51°22.736 3°9.452 -999 -999 -999  
2002-08-01 09:11:39 51°22.737 3°9.453 -999 -999 -999  
2002-08-01 09:11:44 51°22.738 3°9.453 -999 -999 -999  
2002-08-01 09:11:49 51°22.739 3°9.454 -999 -999 -999  
2002-08-01 09:11:54 51°22.74 3°9.454 -999 -999 -999  
2002-08-01 09:11:59 51°22.741 3°9.455 -999 -999 -999  
2002-08-01 09:12:05 51°22.743 3°9.456 -999 -999 -999  
2002-08-01 09:12:09 51°22.743 3°9.456 -999 -999 -999  
2002-08-01 09:12:14 51°22.744 3°9.457 -999 -999 -999  
2002-08-01 09:12:19 51°22.745 3°9.457 -999 -999 -999  
2002-08-01 09:12:24 51°22.746 3°9.458 -999 -999 -999  
2002-08-01 09:12:29 51°22.747 3°9.459 -999 -999 -999  
2002-08-01 09:12:34 51°22.748 3°9.46 -999 -999 -999  
2002-08-01 09:12:39 51°22.749 3°9.461 -999 -999 -999  
2002-08-01 09:12:45 51°22.75 3°9.462 -999 -999 -999  
2002-08-01 09:12:49 51°22.75 3°9.463 -999 -999 -999  
2002-08-01 09:12:53 51°22.751 3°9.464 -999 -999 -999  
2002-08-01 09:12:59 51°22.752 3°9.465 -999 -999 -999  
2002-08-01 09:13:04 51°22.752 3°9.466 -999 -999 -999  
2002-08-01 09:13:09 51°22.753 3°9.467 -999 -999 -999  
2002-08-01 09:13:15 51°22.753 3°9.468 -999 -999 -999  
2002-08-01 09:13:20 51°22.754 3°9.469 -999 -999 -999  
2002-08-01 09:13:24 51°22.754 3°9.47 -999 -999 -999  
2002-08-01 09:13:29 51°22.755 3°9.471 -999 -999 -999  
2002-08-01 09:13:34 51°22.755 3°9.472 -999 -999 -999  
2002-08-01 09:13:39 51°22.756 3°9.473 -999 -999 -999  
2002-08-01 09:13:44 51°22.756 3°9.474 -999 -999 -999  
2002-08-01 09:13:49 51°22.756 3°9.476 -999 -999 -999  
2002-08-01 09:13:55 51°22.757 3°9.477 -999 -999 -999  
2002-08-01 09:13:59 51°22.757 3°9.478 -999 -999 -999  
2002-08-01 09:14:04 51°22.757 3°9.479 -999 -999 -999  
2002-08-01 09:14:09 51°22.757 3°9.48 -999 -999 -999  
2002-08-01 09:14:14 51°22.758 3°9.481 -999 -999 -999  
2002-08-01 09:14:19 51°22.758 3°9.483 -999 -999 -999  
2002-08-01 09:14:24 51°22.758 3°9.484 -999 -999 -999  
2002-08-01 09:14:29 51°22.758 3°9.485 -999 -999 -999  
2002-08-01 09:14:34 51°22.758 3°9.486 -999 -999 -999  
2002-08-01 09:14:39 51°22.758 3°9.487 -999 -999 -999  
2002-08-01 09:14:44 51°22.758 3°9.488 -999 -999 -999  
2002-08-01 09:14:49 51°22.758 3°9.489 -999 -999 -999  
2002-08-01 09:14:53 51°22.758 3°9.49 -999 -999 -999  
2002-08-01 09:14:59 51°22.757 3°9.492 -999 -999 -999  
2002-08-01 09:15:04 51°22.757 3°9.493 -999 -999 -999  
2002-08-01 09:15:09 51°22.757 3°9.494 -999 -999 -999  
2002-08-01 09:15:14 51°22.757 3°9.495 -999 -999 -999  
2002-08-01 09:15:19 51°22.756 3°9.496 -999 -999 -999  
2002-08-01 09:15:24 51°22.756 3°9.497 -999 -999 -999  
2002-08-01 09:15:29 51°22.755 3°9.498 -999 -999 -999  
2002-08-01 09:15:33 51°22.755 3°9.499 -999 -999 -999  
2002-08-01 09:15:39 51°22.754 3°9.5 -999 -999 -999  
2002-08-01 09:15:44 51°22.754 3°9.501 -999 -999 -999  
2002-08-01 09:15:49 51°22.753 3°9.502 -999 -999 -999  
2002-08-01 09:15:55 51°22.752 3°9.503 -999 -999 -999  
2002-08-01 09:15:59 51°22.752 3°9.504 -999 -999 -999  
2002-08-01 09:16:05 51°22.751 3°9.505 -999 -999 -999  
2002-08-01 09:16:09 51°22.75 3°9.505 -999 -999 -999  
2002-08-01 09:16:13 51°22.75 3°9.506 -999 -999 -999  
2002-08-01 09:16:19 51°22.749 3°9.507 -999 -999 -999  
2002-08-01 09:16:24 51°22.748 3°9.507 -999 -999 -999  
2002-08-01 09:16:29 51°22.747 3°9.508 -999 -999 -999  
2002-08-01 09:16:34 51°22.746 3°9.508 -999 -999 -999  
2002-08-01 09:16:39 51°22.745 3°9.509 -999 -999 -999  
2002-08-01 09:16:44 51°22.744 3°9.509 -999 -999 -999